Weather History for KLND - February, 2014

Change the Weather History Date:

Monday, February 3, 2014

  Actual Average Record
Temperature  
Mean Temperature 18 °F 22 °F  
Max Temperature 28 °F 34 °F 60 °F (1925)
Min Temperature 8 °F 11 °F -26 °F (1899)
Degree Days  
Heating Degree Days 47 43  
Month to date heating degree days 152 129  
Since 1 July heating degree days 4668 4719  
Cooling Degree Days 0 0  
Month to date cooling degree days 0 0  
Year to date cooling degree days 0 0  
Moisture  
Dew Point 6 °F    
Average Humidity 63    
Maximum Humidity 80    
Minimum Humidity 46    
Precipitation  
Precipitation T in 0.02 in 0.37 in (1961)
Month to date precipitation 0.01 0.05  
Year to date precipitation 0.62 0.46  
Snow  
Snow T in 0.30 in - ()
Month to date snowfall 0.5 0.9  
Since 1 July snowfall 52.0 44.2  
Snow Depth T in    
Sea Level Pressure  
Sea Level Pressure 29.94 in    
Wind  
Wind Speed 6 mph (NW)    
Max Wind Speed 17 mph    
Max Gust Speed 21 mph    
Visibility 10 miles    
Events Snow    
T = Trace of Precipitation, MM = Missing Value Source: NWS Daily Summary

Daily Weather History Graph

Daily Weather History Graph

Search for Another Location

Airport or City:

Trip Planner

Search our weather history database for the weather conditions in past years. The results will help you decide how hot, cold, wet, or windy it might be!

Date:

Astronomy

Feb. 03, 2014 Rise Set
Actual Time 7:27 AM MST 5:30 PM MST
Civil Twilight 6:57 AM MST 6:00 PM MST
Nautical Twilight 6:23 AM MST 6:34 PM MST
Astronomical Twilight 5:50 AM MST 7:07 PM MST
Moon 9:24 AM MST (2/3) 10:32 PM MST (2/3)
Length of Visible Light 11h 03m
Length of Day
10h 03m
Waxing Crescent, 20% of the Moon is Illuminated
Feb 3
Waxing Crescent
Feb 6
First Quarter
Feb 14
Full
Feb 22
Last Quarter
Mar 1
New

Hourly Weather History & Observations

Time (MST) Temp. Windchill Dew Point Humidity Pressure Visibility Wind Dir Wind Speed Gust Speed Precip Events Conditions
12:53 AM 14.0 °F 8.2 °F 5.0 °F 67% 29.97 in 10.0 mi West 3.5 mph - N/A   Clear
1:53 AM 12.9 °F 3.8 °F 3.9 °F 67% 29.96 in 10.0 mi West 5.8 mph - N/A   Clear
2:53 AM 12.0 °F - 3.9 °F 70% 29.95 in 10.0 mi Calm Calm - N/A   Clear
3:53 AM 12.0 °F - 1.9 °F 64% 29.94 in 10.0 mi Calm Calm - N/A   Clear
4:53 AM 12.9 °F 3.8 °F 1.0 °F 59% 29.95 in 10.0 mi WSW 5.8 mph - N/A   Clear
5:53 AM 10.9 °F - 3.0 °F 70% 29.98 in 10.0 mi Calm Calm - N/A   Clear
6:53 AM 10.0 °F - 3.0 °F 73% 29.97 in 10.0 mi Calm Calm - N/A   Clear
7:53 AM 10.9 °F 4.7 °F 1.9 °F 67% 29.99 in 10.0 mi ENE 3.5 mph - N/A   Clear
8:53 AM 12.0 °F - 5.0 °F 73% 30.00 in 7.0 mi Calm Calm - N/A   Clear
9:53 AM 17.1 °F 7.6 °F 5.0 °F 59% 30.00 in 10.0 mi WSW 6.9 mph - N/A   Clear
10:53 AM 21.0 °F 16.2 °F 5.0 °F 50% 29.98 in 10.0 mi NNE 3.5 mph - N/A   Clear
11:53 AM 23.0 °F 15.8 °F 9.0 °F 55% 29.95 in 10.0 mi NNE 5.8 mph - N/A   Clear
12:53 PM 24.1 °F - 9.0 °F 53% 29.93 in 10.0 mi North - - N/A   Clear
1:53 PM 26.1 °F 20.5 °F 9.0 °F 49% 29.89 in 10.0 mi ENE 4.6 mph - N/A   Partly Cloudy
2:53 PM 27.0 °F 21.6 °F 9.0 °F 47% 29.88 in 10.0 mi ENE 4.6 mph - N/A   Clear
3:53 PM 26.1 °F - 8.1 °F 47% 29.88 in 10.0 mi Calm Calm - N/A   Clear
4:53 PM 24.1 °F 17.0 °F 9.0 °F 53% 29.88 in 10.0 mi North 5.8 mph - N/A   Clear
5:53 PM 21.0 °F 14.6 °F 9.0 °F 60% 29.91 in 10.0 mi West 4.6 mph - N/A   Clear
6:53 PM 19.0 °F 8.2 °F 9.0 °F 65% 29.92 in 10.0 mi WSW 9.2 mph - N/A   Clear
7:53 PM 18.0 °F 6.9 °F 8.1 °F 65% 29.93 in 10.0 mi NW 9.2 mph - N/A   Partly Cloudy
8:53 PM 16.0 °F 3.6 °F 8.1 °F 71% 29.96 in 10.0 mi NNW 10.4 mph - N/A   Partly Cloudy
9:53 PM 14.0 °F -0.8 °F 8.1 °F 77% 29.96 in 10.0 mi NW 13.8 mph - N/A   Partly Cloudy
10:29 PM 12.9 °F -2.2 °F 7.0 °F 77% 29.80 in 10.0 mi NW 13.8 mph - N/A   Mostly Cloudy
10:53 PM 12.9 °F -2.2 °F 7.0 °F 77% 29.98 in 10.0 mi NNW 13.8 mph - N/A   Overcast
11:53 PM 10.9 °F -5.4 °F 7.0 °F 84% 30.01 in 5.0 mi NNW 15.0 mph - 0.00 in Snow Light Snow